Home > Weather > Creston > Past weeks

Flag for Canada Weather for the Past 2 Weeks in Creston, British Columbia, Canada

Now
64 °F

Mild.


Feels Like: 64 °F
Forecast: N/A
Wind: 2 mph from South

Location: Creston

Current Time: May 4, 2016 at 10:58:30 AM

Latest Report: May 4, 2016 at 10:00 AM


Visibility: N/A

Pressure: 29.97 "Hg (27.88 "Hg at 617m altitude)

Humidity: 50%

Dew Point: 45 °F

Location of CrestonLocation

Historic Weather in Creston — Graph

°F

Creston Temperature Yesterday

Maximum temperature yesterday: 83 °F (at 5:00 PM)
Minimum temperature yesterday: 50 °F (at 6:00 AM)
Average temperature yesterday: 65 °F

High & Low Weather Summary for the Past Weeks

 TemperatureHumidityPressure
High83 °F (May 3, 5:00 PM)100% (Apr 30, 5:00 AM)30.37 "Hg (Apr 30, 5:00 AM)
Low42 °F (Apr 26, 6:00 AM)15% (May 3, 6:00 PM)29.60 "Hg (Apr 22, 7:00 AM)
Average57 °F58%29.98 "Hg
* Reported Apr 19 9:00 AM — May 4 9:00 AM, Creston, Weather by CustomWeather, © 2016

Note: Actual official high and low records may vary slightly from our data, if they occured in-between our weather recording intervals... More about our weather records

Advertising

Creston Weather History for the Previous 24 Hours

Scroll right to see more
 ConditionsComfort  
Time TempWeatherWind HumidityBarometerVisibility
9:00 AM
Wed, May 4
58 °FRefreshingly cool.2 mph54%30.00 "HgN/A
8:00 AM55 °FRefreshingly cool.6 mph57%30.00 "HgN/A
7:00 AM52 °FCool.2 mph65%29.99 "HgN/A
6:00 AM53 °FCool.2 mph54%29.98 "HgN/A
5:00 AM54 °FCool.3 mph51%29.98 "HgN/A
4:00 AM55 °FRefreshingly cool.2 mph48%29.98 "HgN/A
3:00 AM57 °FRefreshingly cool.2 mph48%29.97 "HgN/A
2:00 AM59 °FRefreshingly cool.5 mph45%29.97 "HgN/A
1:00 AM60 °FRefreshingly cool.2 mph40%29.98 "HgN/A
12:00 AM62 °FRefreshingly cool.3 mph37%29.96 "HgN/A
11:00 PM
Tue, May 3
64 °FMild.1 mph33%29.96 "HgN/A
10:00 PM66 °FMild.3 mph32%29.96 "HgN/A
9:00 PM66 °FMild.6 mph35%29.95 "HgN/A
8:00 PM69 °FMild.5 mph31%29.93 "HgN/A
7:00 PM78 °FPleasantly warm.1 mph33%29.92 "HgN/A
6:00 PM82 °FPleasantly warm.2 mph15%29.94 "HgN/A
5:00 PM83 °FPleasantly warm.5 mph19%29.96 "HgN/A
4:00 PM82 °FPleasantly warm.3 mph18%29.98 "HgN/A
3:00 PM81 °FPleasantly warm.3 mph33%30.01 "HgN/A
2:00 PM78 °FPleasantly warm.3 mph34%30.03 "HgN/A
1:00 PM74 °FMild.2 mph35%30.07 "HgN/A
12:00 PM70 °FMild.3 mph34%30.09 "HgN/A
11:00 AM67 °FMild.1 mph45%30.12 "HgN/A
10:00 AM62 °FRefreshingly cool.3 mph52%30.14 "HgN/A
Weather by CustomWeather, © 2016

See weather overviewHow to use our weather pages